TimePDT,TemperatureF,Dew PointF,Humidity,Sea Level PressureIn,VisibilityMPH,Wind Direction,Wind SpeedMPH,Gust SpeedMPH,PrecipitationIn,Events,Conditions,WindDirDegrees,DateUTC
12:53 AM,62.1,60.1,93,29.99,6.0,West,5.8,-,N/A,,Clear,280,2013-07-27 07:53:00
1:53 AM,61.0,59.0,93,29.99,4.0,Calm,Calm,-,N/A,,Clear,0,2013-07-27 08:53:00
2:47 AM,60.8,59.0,94,30.02,1.5,Calm,Calm,-,N/A,,Clear,0,2013-07-27 09:47:00
2:49 AM,60.8,59.0,94,30.02,0.8,Calm,Calm,-,N/A,,Mist,0,2013-07-27 09:49:00
2:53 AM,60.1,59.0,96,29.98,0.5,Calm,Calm,-,N/A,Fog,Fog,0,2013-07-27 09:53:00
3:06 AM,59.0,57.2,94,30.03,1.2,Calm,Calm,-,N/A,,Scattered Clouds,0,2013-07-27 10:06:00
3:11 AM,59.0,57.2,94,30.03,3.0,Calm,Calm,-,N/A,,Scattered Clouds,0,2013-07-27 10:11:00
3:16 AM,59.0,57.2,94,30.02,2.5,Calm,Calm,-,N/A,,Mostly Cloudy,0,2013-07-27 10:16:00
3:22 AM,59.0,57.2,94,30.02,1.2,Calm,Calm,-,N/A,,Scattered Clouds,0,2013-07-27 10:22:00
3:24 AM,59.0,57.2,94,30.03,0.8,Calm,Calm,-,N/A,,Mist,0,2013-07-27 10:24:00
3:34 AM,57.2,57.2,100,30.03,0.2,West,4.6,-,N/A,Fog,Fog,280,2013-07-27 10:34:00
3:41 AM,57.2,57.2,100,30.02,0.2,West,4.6,-,N/A,Fog,Fog,270,2013-07-27 10:41:00
3:53 AM,60.1,59.0,96,29.98,0.2,Calm,Calm,-,N/A,Fog,Fog,0,2013-07-27 10:53:00
4:53 AM,60.1,60.1,100,29.98,0.2,Calm,Calm,-,N/A,Fog,Fog,0,2013-07-27 11:53:00
5:53 AM,59.0,59.0,100,29.99,0.2,Calm,Calm,-,N/A,Fog,Fog,0,2013-07-27 12:53:00
6:09 AM,59.0,57.2,94,30.02,0.2,Calm,Calm,-,N/A,Fog,Fog,0,2013-07-27 13:09:00
6:34 AM,59.0,59.0,100,30.02,0.8,Calm,Calm,-,N/A,,Mist,0,2013-07-27 13:34:00
6:36 AM,59.0,59.0,100,30.02,1.2,Calm,Calm,-,N/A,,Mostly Cloudy,0,2013-07-27 13:36:00
6:42 AM,59.0,59.0,100,30.02,3.0,Calm,Calm,-,N/A,,Scattered Clouds,0,2013-07-27 13:42:00
6:53 AM,60.1,60.1,100,29.99,4.0,Calm,Calm,-,N/A,,Partly Cloudy,0,2013-07-27 13:53:00
7:53 AM,62.1,61.0,96,29.98,6.0,Calm,Calm,-,N/A,,Clear,0,2013-07-27 14:53:00
8:53 AM,73.0,61.0,66,29.97,10.0,NW,4.6,-,N/A,,Clear,310,2013-07-27 15:53:00
9:53 AM,78.1,62.1,58,29.96,10.0,NW,4.6,-,N/A,,Clear,320,2013-07-27 16:53:00
10:53 AM,80.1,62.1,54,29.96,10.0,WNW,8.1,-,N/A,,Clear,300,2013-07-27 17:53:00
11:53 AM,84.9,63.0,48,29.95,10.0,WNW,10.4,17.3,N/A,,Clear,300,2013-07-27 18:53:00
12:53 PM,84.9,62.1,46,29.94,10.0,WNW,10.4,-,N/A,,Clear,300,2013-07-27 19:53:00
1:53 PM,84.9,62.1,46,29.92,10.0,West,10.4,17.3,N/A,,Clear,270,2013-07-27 20:53:00
2:53 PM,84.9,61.0,44,29.90,10.0,WNW,11.5,-,N/A,,Clear,290,2013-07-27 21:53:00
3:53 PM,84.9,60.1,43,29.89,10.0,West,10.4,-,N/A,,Clear,270,2013-07-27 22:53:00
4:53 PM,82.9,59.0,44,29.88,10.0,West,11.5,-,N/A,,Clear,280,2013-07-27 23:53:00
5:53 PM,78.1,59.0,52,29.88,10.0,West,9.2,-,N/A,,Clear,260,2013-07-28 00:53:00
6:53 PM,75.0,59.0,57,29.88,10.0,NW,10.4,-,N/A,,Clear,310,2013-07-28 01:53:00
7:53 PM,69.1,59.0,70,29.89,10.0,West,6.9,-,N/A,,Clear,280,2013-07-28 02:53:00
8:53 PM,64.9,57.9,78,29.90,10.0,WNW,5.8,-,N/A,,Clear,290,2013-07-28 03:53:00
9:53 PM,62.1,57.0,84,29.91,10.0,West,4.6,-,N/A,,Clear,270,2013-07-28 04:53:00
10:53 PM,60.1,57.0,90,29.90,10.0,West,4.6,-,N/A,,Clear,280,2013-07-28 05:53:00
11:53 PM,59.0,55.9,90,29.90,10.0,Calm,Calm,-,N/A,,Clear,0,2013-07-28 06:53:00